| time (UTC) | temp F | wind direction | speed knots | gust knots | rain 1hr in | rain 24hr in | rain mn in | humidity % | barometer mb |
| 20260506103227 | 54 | 348 | 0.0 | 1.7 | 0.00 | 0.00 | 0.00 | 89 | 1019.8 |
| 20260506102453 | 54 | 265 | 0.0 | 1.7 | 0.00 | 0.00 | 0.00 | 89 | 1019.8 |
| 20260506101957 | 54 | 266 | 0.0 | 1.7 | 0.00 | 0.00 | 0.00 | 89 | 1019.7 |
| 20260506101718 | 54 | 213 | 0.0 | 1.7 | 0.00 | 0.00 | 0.00 | 89 | 1019.6 |
| 20260506100952 | 54 | 213 | 0.0 | 1.7 | 0.00 | 0.00 | 0.00 | 89 | 1019.5 |
| 20260506100454 | 54 | 211 | 0.0 | 1.7 | 0.00 | 0.00 | 0.00 | 89 | 1019.5 |
| 20260506095958 | 54 | 268 | 0.0 | 1.7 | 0.00 | 0.00 | 0.00 | 89 | 1019.5 |
| 20260506095715 | 54 | 226 | 0.0 | 1.7 | 0.00 | 0.00 | 0.00 | 89 | 1019.4 |
| 20260506094950 | 54 | 226 | 0.0 | 0.0 | 0.00 | 0.00 | 0.00 | 89 | 1019.4 |
| 20260506094445 | 54 | 226 | 0.0 | 0.0 | 0.00 | 0.00 | 0.00 | 89 | 1019.4 |
| 20260506093949 | 54 | 226 | 0.0 | 1.7 | 0.00 | 0.00 | 0.00 | 88 | 1019.3 |
| 20260506093717 | 54 | 184 | 0.0 | 1.7 | 0.00 | 0.00 | 0.00 | 88 | 1019.4 |
| 20260506092948 | 54 | 219 | 0.0 | 1.7 | 0.00 | 0.00 | 0.00 | 88 | 1019.3 |
| 20260506092447 | 54 | 217 | 0.0 | 0.0 | 0.00 | 0.00 | 0.00 | 88 | 1019.3 |
| 20260506091949 | 54 | 248 | 0.0 | 0.0 | 0.00 | 0.00 | 0.00 | 88 | 1019.3 |
| 20260506091446 | 54 | 249 | 0.0 | 1.7 | 0.00 | 0.00 | 0.00 | 88 | 1019.2 |
| 20260506090448 | 54 | 213 | 0.0 | 1.7 | 0.00 | 0.00 | 0.00 | 88 | 1019.2 |
| 20260506085946 | 54 | 178 | 0.0 | 1.7 | 0.00 | 0.00 | 0.00 | 88 | 1019.2 |
| 20260506085704 | 54 | 177 | 0.0 | 1.7 | 0.00 | 0.00 | 0.00 | 88 | 1019.1 |
| 20260506084953 | 54 | 200 | 0.0 | 1.7 | 0.00 | 0.00 | 0.00 | 88 | 1019.1 |
| 20260506084446 | 54 | 200 | 0.0 | 1.7 | 0.00 | 0.00 | 0.00 | 88 | 1019.2 |
| 20260506083948 | 54 | 202 | 0.0 | 1.7 | 0.00 | 0.00 | 0.00 | 88 | 1019.2 |
| 20260506083714 | 54 | 269 | 0.0 | 1.7 | 0.00 | 0.00 | 0.00 | 88 | 1019.1 |
| 20260506082946 | 54 | 210 | 0.0 | 1.7 | 0.00 | 0.00 | 0.00 | 87 | 1019.0 |
| 20260506082444 | 54 | 277 | 0.0 | 1.7 | 0.00 | 0.00 | 0.00 | 87 | 1019.0 |
| 20260506081951 | 54 | 238 | 0.0 | 1.7 | 0.00 | 0.00 | 0.00 | 87 | 1019.0 |
| 20260506081445 | 54 | 238 | 0.0 | 1.7 | 0.00 | 0.00 | 0.00 | 87 | 1019.1 |
| 20260506080948 | 54 | 263 | 0.0 | 1.7 | 0.00 | 0.00 | 0.00 | 87 | 1019.0 |
| 20260506080447 | 54 | 209 | 0.0 | 1.7 | 0.00 | 0.00 | 0.00 | 87 | 1019.0 |
| 20260506073446 | 55 | 280 | 0.0 | 1.7 | 0.00 | 0.00 | 0.00 | 87 | 1018.7 |
| 20260506072946 | 54 | 285 | 0.0 | 1.7 | 0.00 | 0.00 | 0.00 | 87 | 1018.7 |
| 20260506072711 | 54 | 286 | 0.0 | 1.7 | 0.00 | 0.00 | 0.00 | 86 | 1018.6 |
| 20260506071943 | 55 | 281 | 0.0 | 0.0 | 0.00 | 0.00 | 0.00 | 87 | 1018.6 |
| 20260506071720 | 55 | 281 | 0.0 | 0.0 | 0.00 | 0.00 | 0.00 | 87 | 1018.6 |
| 20260506071320 | 55 | 259 | 0.0 | 1.7 | 0.00 | 0.00 | 0.00 | 87 | 1018.5 |
| 20260506070820 | 55 | 259 | 0.0 | 1.7 | 0.00 | 0.00 | 0.00 | 87 | 1018.4 |
| 20260506070318 | 55 | 261 | 0.0 | 0.9 | 0.00 | 0.00 | 0.00 | 86 | 1018.4 |
| 20260506061809 | 55 | 306 | 0.0 | 1.7 | 0.00 | 0.00 | 0.00 | 86 | 1018.2 |
| 20260506061309 | 55 | 202 | 0.0 | 1.7 | 0.00 | 0.00 | 0.00 | 87 | 1018.2 |
| 20260506060807 | 55 | 198 | 0.0 | 1.7 | 0.00 | 0.00 | 0.00 | 86 | 1018.2 |
| 20260506060307 | 55 | 257 | 0.0 | 1.7 | 0.00 | 0.00 | 0.00 | 86 | 1018.3 |
| 20260506051306 | 55 | 197 | 0.0 | 1.7 | 0.00 | 0.00 | 0.00 | 85 | 1017.9 |
| 20260506050807 | 55 | 197 | 0.0 | 1.7 | 0.00 | 0.00 | 0.00 | 85 | 1018.0 |
| 20260506050307 | 55 | 197 | 0.0 | 1.7 | 0.00 | 0.00 | 0.00 | 85 | 1018.0 |
| 20260506045031 | 55 | 318 | 0.9 | 1.7 | 0.00 | 0.00 | 0.00 | 84 | 1017.9 |
| 20260506044307 | 55 | 289 | 0.9 | 1.7 | 0.00 | 0.00 | 0.00 | 84 | 1017.8 |
| 20260506043807 | 55 | 306 | 0.9 | 1.7 | 0.00 | 0.00 | 0.00 | 84 | 1017.7 |
| 20260506043533 | 55 | 286 | 0.9 | 2.6 | 0.00 | 0.00 | 0.00 | 84 | 1017.7 |
| 20260506042807 | 55 | 308 | 0.9 | 2.6 | 0.00 | 0.00 | 0.00 | 84 | 1017.7 |
| 20260506042307 | 55 | 279 | 0.9 | 2.6 | 0.00 | 0.00 | 0.00 | 84 | 1017.6 |
| 20260506041807 | 55 | 329 | 0.9 | 2.6 | 0.00 | 0.00 | 0.00 | 83 | 1017.6 |
| 20260506041522 | 55 | 294 | 0.0 | 1.7 | 0.00 | 0.00 | 0.00 | 83 | 1017.5 |
| 20260506041026 | 55 | 296 | 0.0 | 1.7 | 0.00 | 0.00 | 0.00 | 83 | 1017.5 |
| 20260506040307 | 55 | 266 | 0.0 | 1.7 | 0.00 | 0.00 | 0.00 | 83 | 1017.5 |
| 20260506035758 | 55 | 329 | 0.0 | 1.7 | 0.00 | 0.00 | 0.00 | 84 | 1017.5 |
| 20260506035301 | 56 | 316 | 0.0 | 1.7 | 0.00 | 0.00 | 0.00 | 83 | 1017.4 |
| 20260506034756 | 56 | 306 | 0.0 | 2.6 | 0.00 | 0.00 | 0.00 | 84 | 1017.4 |
| 20260506034258 | 56 | 255 | 0.9 | 2.6 | 0.00 | 0.00 | 0.00 | 84 | 1017.4 |
| 20260506033758 | 56 | 279 | 0.0 | 1.7 | 0.00 | 0.00 | 0.00 | 84 | 1017.3 |
| 20260506033256 | 56 | 275 | 0.9 | 2.6 | 0.00 | 0.00 | 0.00 | 84 | 1017.2 |
| 20260506032756 | 56 | 327 | 0.9 | 2.6 | 0.00 | 0.00 | 0.00 | 83 | 1017.1 |
| 20260506032257 | 56 | 312 | 0.9 | 2.6 | 0.00 | 0.00 | 0.00 | 83 | 1017.1 |
| 20260506031757 | 56 | 327 | 0.0 | 3.5 | 0.00 | 0.00 | 0.00 | 82 | 1017.0 |
| 20260506031257 | 56 | 304 | 0.9 | 3.5 | 0.00 | 0.00 | 0.00 | 82 | 1017.0 |
| 20260506031021 | 56 | 321 | 0.9 | 3.5 | 0.00 | 0.00 | 0.00 | 82 | 1016.9 |
| 20260506030257 | 56 | 327 | 1.7 | 5.2 | 0.00 | 0.00 | 0.00 | 81 | 1016.9 |
| 20260506025757 | 56 | 333 | 2.6 | 5.2 | 0.00 | 0.00 | 0.00 | 82 | 1016.8 |
| 20260506025257 | 56 | 328 | 1.7 | 5.2 | 0.00 | 0.00 | 0.00 | 81 | 1016.8 |
| 20260506024758 | 56 | 346 | 1.7 | 5.2 | 0.00 | 0.00 | 0.00 | 81 | 1016.7 |
| 20260506024257 | 56 | 315 | 1.7 | 3.5 | 0.00 | 0.00 | 0.00 | 81 | 1016.7 |
| 20260506023758 | 56 | 310 | 1.7 | 3.5 | 0.00 | 0.00 | 0.00 | 81 | 1016.6 |
| 20260506023258 | 56 | 331 | 1.7 | 3.5 | 0.00 | 0.00 | 0.00 | 81 | 1016.6 |
| 20260506022805 | 56 | 327 | 2.6 | 5.2 | 0.00 | 0.00 | 0.00 | 80 | 1016.6 |
| 20260506022520 | 56 | 313 | 2.6 | 5.2 | 0.00 | 0.00 | 0.00 | 80 | 1016.4 |
| 20260506021757 | 57 | 332 | 2.6 | 4.3 | 0.00 | 0.00 | 0.00 | 80 | 1016.4 |
| 20260506021256 | 57 | 322 | 1.7 | 4.3 | 0.00 | 0.00 | 0.00 | 80 | 1016.3 |
| 20260506020756 | 57 | 331 | 1.7 | 4.3 | 0.00 | 0.00 | 0.00 | 80 | 1016.3 |
| 20260506020257 | 57 | 330 | 1.7 | 4.3 | 0.00 | 0.00 | 0.00 | 80 | 1016.3 |
| 20260506015757 | 57 | 321 | 1.7 | 4.3 | 0.00 | 0.00 | 0.00 | 80 | 1016.3 |
| 20260506015252 | 57 | 325 | 2.6 | 4.3 | 0.00 | 0.00 | 0.00 | 80 | 1016.2 |
| 20260506015019 | 57 | 321 | 2.6 | 5.2 | 0.00 | 0.00 | 0.00 | 79 | 1016.2 |
| 20260506014252 | 57 | 338 | 1.7 | 5.2 | 0.00 | 0.00 | 0.00 | 79 | 1016.3 |
| 20260506014012 | 57 | 327 | 2.6 | 5.2 | 0.00 | 0.00 | 0.00 | 80 | 1016.3 |
| 20260506013248 | 57 | 312 | 2.6 | 5.2 | 0.00 | 0.00 | 0.00 | 80 | 1016.3 |
| 20260506012749 | 58 | 332 | 2.6 | 4.3 | 0.00 | 0.00 | 0.00 | 80 | 1016.2 |
| 20260506012248 | 58 | 308 | 0.9 | 3.5 | 0.00 | 0.00 | 0.00 | 79 | 1016.2 |
| 20260506012009 | 58 | 306 | 0.9 | 3.5 | 0.00 | 0.00 | 0.00 | 80 | 1016.2 |
| 20260506011518 | 58 | 268 | 1.7 | 4.3 | 0.00 | 0.00 | 0.00 | 80 | 1016.2 |
| 20260506010746 | 58 | 315 | 1.7 | 4.3 | 0.00 | 0.00 | 0.00 | 79 | 1016.1 |
| 20260506010247 | 58 | 0 | 2.6 | 4.3 | 0.00 | 0.00 | 0.00 | 79 | 1016.3 |
| 20260506005748 | 58 | 317 | 2.6 | 5.2 | 0.00 | 0.00 | 0.00 | 79 | 1016.3 |
| 20260506005246 | 58 | 323 | 2.6 | 6.1 | 0.00 | 0.00 | 0.00 | 79 | 1016.2 |
| 20260506004746 | 58 | 295 | 3.5 | 6.1 | 0.00 | 0.00 | 0.00 | 78 | 1016.2 |
| 20260506004247 | 58 | 313 | 2.6 | 6.1 | 0.00 | 0.00 | 0.00 | 78 | 1016.2 |
| 20260506003748 | 58 | 329 | 1.7 | 6.1 | 0.00 | 0.00 | 0.00 | 78 | 1016.2 |
| 20260506003503 | 58 | 337 | 1.7 | 7.0 | 0.00 | 0.00 | 0.00 | 78 | 1016.1 |
| 20260506002738 | 59 | 315 | 1.7 | 7.0 | 0.00 | 0.00 | 0.00 | 77 | 1016.0 |
| 20260506002238 | 59 | 285 | 1.7 | 5.2 | 0.00 | 0.00 | 0.00 | 77 | 1016.0 |
| 20260506001739 | 59 | 311 | 1.7 | 6.1 | 0.00 | 0.00 | 0.00 | 76 | 1016.0 |
| 20260506001239 | 59 | 279 | 1.7 | 6.1 | 0.00 | 0.00 | 0.00 | 76 | 1016.0 |
| 20260506001004 | 59 | 327 | 2.6 | 6.1 | 0.00 | 0.00 | 0.00 | 76 | 1016.0 |
| 20260506000240 | 59 | 321 | 3.5 | 6.1 | 0.00 | 0.00 | 0.00 | 75 | 1016.0 |
| 20260505235739 | 59 | 327 | 2.6 | 6.1 | 0.00 | 0.00 | 0.00 | 75 | 1016.0 |
| 20260505235238 | 59 | 273 | 2.6 | 5.2 | 0.00 | 0.00 | 0.00 | 75 | 1016.1 |
| 20260505234746 | 59 | 305 | 2.6 | 5.2 | 0.00 | 0.00 | 0.00 | 75 | 1016.2 |
| 20260505234238 | 59 | 319 | 3.5 | 7.0 | 0.00 | 0.00 | 0.00 | 75 | 1016.2 |
| 20260505233739 | 59 | 298 | 2.6 | 7.0 | 0.00 | 0.00 | 0.00 | 75 | 1016.3 |
| 20260505233238 | 59 | 349 | 2.6 | 7.0 | 0.00 | 0.00 | 0.00 | 75 | 1016.3 |
| 20260505232740 | 59 | 282 | 2.6 | 7.0 | 0.00 | 0.00 | 0.00 | 75 | 1016.3 |
| 20260505232240 | 59 | 302 | 2.6 | 7.0 | 0.00 | 0.00 | 0.00 | 76 | 1016.3 |
| 20260505231737 | 60 | 284 | 2.6 | 7.0 | 0.00 | 0.00 | 0.00 | 76 | 1016.3 |
| 20260505231231 | 60 | 260 | 3.5 | 7.8 | 0.00 | 0.00 | 0.00 | 77 | 1016.4 |
| 20260505230725 | 60 | 314 | 4.3 | 7.8 | 0.00 | 0.00 | 0.00 | 77 | 1016.4 |
| 20260505230219 | 60 | 256 | 4.3 | 7.8 | 0.00 | 0.00 | 0.00 | 77 | 1016.6 |
| 20260505225714 | 60 | 299 | 4.3 | 9.6 | 0.00 | 0.00 | 0.00 | 76 | 1016.4 |
| 20260505225212 | 60 | 317 | 3.5 | 9.6 | 0.00 | 0.00 | 0.00 | 76 | 1016.4 |
| 20260505224712 | 60 | 327 | 3.5 | 9.6 | 0.00 | 0.00 | 0.00 | 75 | 1016.4 |
| 20260505224213 | 60 | 333 | 4.3 | 9.6 | 0.00 | 0.00 | 0.00 | 75 | 1016.4 |
| 20260505223937 | 60 | 332 | 3.5 | 7.0 | 0.00 | 0.00 | 0.00 | 75 | 1016.4 |
| 20260505223212 | 60 | 294 | 3.5 | 7.8 | 0.00 | 0.00 | 0.00 | 74 | 1016.6 |
| 20260505222712 | 60 | 290 | 2.6 | 7.8 | 0.00 | 0.00 | 0.00 | 75 | 1016.6 |
| 20260505222213 | 60 | 350 | 2.6 | 6.1 | 0.00 | 0.00 | 0.00 | 75 | 1016.6 |
| 20260505221711 | 60 | 324 | 3.5 | 7.8 | 0.00 | 0.00 | 0.00 | 75 | 1016.6 |
| 20260505221429 | 60 | 337 | 3.5 | 7.8 | 0.00 | 0.00 | 0.00 | 74 | 1016.4 |
| 20260505220927 | 60 | 322 | 2.6 | 7.8 | 0.00 | 0.00 | 0.00 | 73 | 1016.6 |
| 20260505220210 | 61 | 334 | 1.7 | 6.1 | 0.00 | 0.00 | 0.00 | 74 | 1016.6 |
| 20260505215708 | 61 | 101 | 2.6 | 7.8 | 0.00 | 0.00 | 0.00 | 74 | 1016.4 |
| 20260505215209 | 61 | 292 | 2.6 | 7.8 | 0.00 | 0.00 | 0.00 | 73 | 1016.6 |
| 20260505214706 | 62 | 306 | 1.7 | 7.0 | 0.00 | 0.00 | 0.00 | 73 | 1016.4 |
| 20260505214208 | 62 | 0 | 1.7 | 6.1 | 0.00 | 0.00 | 0.00 | 72 | 1016.3 |
| 20260505213704 | 62 | 229 | 2.6 | 6.1 | 0.00 | 0.00 | 0.00 | 73 | 1016.3 |
| 20260505213202 | 62 | 296 | 2.6 | 5.2 | 0.00 | 0.00 | 0.00 | 72 | 1016.2 |
| 20260505212700 | 63 | 284 | 1.7 | 5.2 | 0.00 | 0.00 | 0.00 | 72 | 1016.1 |
| 20260505212200 | 63 | 309 | 1.7 | 5.2 | 0.00 | 0.00 | 0.00 | 71 | 1016.1 |
| 20260505211703 | 63 | 334 | 1.7 | 5.2 | 0.00 | 0.00 | 0.00 | 72 | 1016.1 |
| 20260505211201 | 63 | 333 | 1.7 | 7.0 | 0.00 | 0.00 | 0.00 | 71 | 1016.1 |
| 20260505210701 | 63 | 298 | 1.7 | 7.0 | 0.00 | 0.00 | 0.00 | 71 | 1016.0 |
| 20260505210158 | 63 | 322 | 2.6 | 7.0 | 0.00 | 0.00 | 0.00 | 71 | 1016.0 |
| 20260505205658 | 63 | 319 | 1.7 | 7.0 | 0.00 | 0.00 | 0.00 | 70 | 1016.0 |
| 20260505205158 | 64 | 325 | 0.9 | 6.1 | 0.00 | 0.00 | 0.00 | 71 | 1016.0 |
| 20260505204700 | 63 | 278 | 0.9 | 3.5 | 0.00 | 0.00 | 0.00 | 72 | 1015.9 |
| 20260505204422 | 63 | 224 | 0.9 | 3.5 | 0.00 | 0.00 | 0.00 | 71 | 1015.9 |
| 20260505203658 | 63 | 329 | 1.7 | 4.3 | 0.00 | 0.00 | 0.00 | 72 | 1016.0 |
| 20260505203200 | 63 | 248 | 1.7 | 4.3 | 0.00 | 0.00 | 0.00 | 73 | 1016.0 |
| 20260505202921 | 64 | 306 | 1.7 | 5.2 | 0.00 | 0.00 | 0.00 | 70 | 1016.0 |
| 20260505202156 | 64 | 271 | 1.7 | 5.2 | 0.00 | 0.00 | 0.00 | 72 | 1016.0 |
| 20260505201649 | 63 | 276 | 1.7 | 5.2 | 0.00 | 0.00 | 0.00 | 73 | 1016.0 |
| 20260505201143 | 63 | 317 | 1.7 | 7.0 | 0.00 | 0.00 | 0.00 | 72 | 1016.1 |
| 20260505200638 | 64 | 336 | 1.7 | 7.0 | 0.00 | 0.00 | 0.00 | 72 | 1016.0 |
| 20260505200131 | 64 | 193 | 1.7 | 4.3 | 0.00 | 0.00 | 0.00 | 73 | 1016.0 |
| 20260505195627 | 64 | 238 | 1.7 | 4.3 | 0.00 | 0.00 | 0.00 | 75 | 1016.0 |
| 20260505195127 | 63 | 146 | 1.7 | 4.3 | 0.00 | 0.00 | 0.00 | 74 | 1016.0 |
| 20260505194626 | 63 | 194 | 0.9 | 4.3 | 0.00 | 0.00 | 0.00 | 76 | 1016.0 |
| 20260505194126 | 63 | 329 | 0.9 | 4.3 | 0.00 | 0.00 | 0.00 | 75 | 1016.0 |
| 20260505193626 | 62 | 275 | 1.7 | 5.2 | 0.00 | 0.00 | 0.00 | 75 | 1016.0 |
| 20260505193127 | 62 | 272 | 1.7 | 6.1 | 0.00 | 0.00 | 0.00 | 75 | 1016.0 |
| 20260505192626 | 62 | 251 | 1.7 | 6.1 | 0.00 | 0.00 | 0.00 | 76 | 1016.0 |
| 20260505192127 | 61 | 309 | 0.9 | 4.3 | 0.00 | 0.00 | 0.00 | 76 | 1016.1 |
| 20260505191625 | 61 | 312 | 0.9 | 4.3 | 0.00 | 0.00 | 0.00 | 75 | 1016.2 |
| 20260505191128 | 61 | 205 | 0.9 | 2.6 | 0.00 | 0.00 | 0.00 | 77 | 1016.2 |
| 20260505190624 | 60 | 300 | 1.7 | 5.2 | 0.00 | 0.00 | 0.00 | 77 | 1016.2 |
| 20260505190125 | 60 | 314 | 0.9 | 5.2 | 0.00 | 0.00 | 0.00 | 77 | 1016.2 |
| 20260505185626 | 60 | 236 | 1.7 | 5.2 | 0.00 | 0.00 | 0.00 | 77 | 1016.3 |
| 20260505185347 | 60 | 319 | 1.7 | 5.2 | 0.00 | 0.00 | 0.00 | 76 | 1016.3 |
| 20260505184625 | 60 | 329 | 0.9 | 4.3 | 0.00 | 0.00 | 0.00 | 76 | 1016.2 |
| 20260505184123 | 60 | 235 | 1.7 | 4.3 | 0.00 | 0.00 | 0.00 | 77 | 1016.2 |
| 20260505183625 | 60 | 213 | 0.9 | 5.2 | 0.00 | 0.00 | 0.00 | 78 | 1016.2 |
| 20260505183123 | 59 | 326 | 1.7 | 6.1 | 0.00 | 0.00 | 0.00 | 77 | 1016.3 |
| 20260505182624 | 59 | 344 | 1.7 | 6.1 | 0.00 | 0.00 | 0.00 | 76 | 1016.3 |
| 20260505182124 | 59 | 314 | 0.9 | 4.3 | 0.00 | 0.00 | 0.00 | 78 | 1016.2 |
| 20260505181625 | 59 | 299 | 1.7 | 4.3 | 0.00 | 0.00 | 0.00 | 78 | 1016.2 |
| 20260505181123 | 59 | 311 | 1.7 | 4.3 | 0.00 | 0.00 | 0.00 | 78 | 1016.2 |
| 20260505180624 | 59 | 333 | 1.7 | 4.3 | 0.00 | 0.00 | 0.00 | 78 | 1016.1 |
| 20260505180126 | 59 | 349 | 1.7 | 4.3 | 0.00 | 0.00 | 0.00 | 78 | 1016.2 |
| 20260505175625 | 59 | 338 | 1.7 | 4.3 | 0.00 | 0.00 | 0.00 | 81 | 1016.2 |
| 20260505175124 | 58 | 232 | 1.7 | 4.3 | 0.00 | 0.00 | 0.00 | 79 | 1016.2 |
| 20260505174622 | 58 | 315 | 2.6 | 4.3 | 0.00 | 0.00 | 0.00 | 78 | 1016.2 |
| 20260505174122 | 58 | 309 | 2.6 | 4.3 | 0.00 | 0.00 | 0.00 | 78 | 1016.1 |
| 20260505173621 | 58 | 319 | 1.7 | 3.5 | 0.00 | 0.00 | 0.00 | 78 | 1016.1 |
| 20260505173340 | 59 | 326 | 0.9 | 4.3 | 0.00 | 0.00 | 0.00 | 78 | 1016.1 |
| 20260505172839 | 59 | 317 | 0.9 | 4.3 | 0.00 | 0.00 | 0.00 | 77 | 1016.1 |
| 20260505172119 | 59 | 250 | 0.9 | 2.6 | 0.00 | 0.00 | 0.00 | 79 | 1016.0 |
| 20260505171621 | 58 | 355 | 0.9 | 3.5 | 0.00 | 0.00 | 0.00 | 79 | 1016.0 |
| 20260505171120 | 58 | 199 | 0.9 | 3.5 | 0.00 | 0.00 | 0.00 | 81 | 1016.0 |
| 20260505170619 | 58 | 355 | 0.9 | 3.5 | 0.00 | 0.00 | 0.00 | 80 | 1016.1 |
| 20260505170121 | 58 | 15 | 0.9 | 3.5 | 0.00 | 0.00 | 0.00 | 80 | 1016.0 |
| 20260505165621 | 58 | 319 | 0.9 | 2.6 | 0.00 | 0.00 | 0.00 | 81 | 1016.0 |
| 20260505165342 | 58 | 277 | 0.9 | 2.6 | 0.00 | 0.00 | 0.00 | 81 | 1016.0 |
| 20260505164621 | 57 | 287 | 0.0 | 1.7 | 0.00 | 0.00 | 0.00 | 82 | 1016.0 |
| 20260505164120 | 57 | 306 | 0.0 | 1.7 | 0.00 | 0.00 | 0.00 | 84 | 1016.1 |
| 20260505163846 | 56 | 36 | 0.0 | 1.7 | 0.00 | 0.00 | 0.00 | 83 | 1016.0 |
| 20260505163117 | 56 | 46 | 0.0 | 1.7 | 0.00 | 0.00 | 0.00 | 84 | 1016.0 |
| 20260505162615 | 56 | 327 | 0.0 | 1.7 | 0.00 | 0.00 | 0.00 | 86 | 1016.0 |
| 20260505162116 | 56 | 266 | 0.0 | 1.7 | 0.00 | 0.00 | 0.00 | 85 | 1016.1 |
| 20260505161617 | 55 | 121 | 0.0 | 1.7 | 0.00 | 0.00 | 0.00 | 87 | 1016.0 |
| 20260505161116 | 55 | 328 | 0.0 | 1.7 | 0.00 | 0.00 | 0.00 | 87 | 1016.1 |
| 20260505160616 | 55 | 232 | 0.0 | 1.7 | 0.00 | 0.00 | 0.00 | 88 | 1016.1 |
| 20260505160115 | 55 | 267 | 0.0 | 1.7 | 0.00 | 0.00 | 0.00 | 87 | 1016.1 |
| 20260505153107 | 53 | 236 | 0.9 | 1.7 | 0.00 | 0.00 | 0.00 | 90 | 1015.9 |
| 20260505152823 | 53 | 322 | 0.9 | 1.7 | 0.00 | 0.00 | 0.00 | 90 | 1015.9 |
| 20260505152109 | 53 | 333 | 0.9 | 1.7 | 0.00 | 0.00 | 0.00 | 89 | 1015.9 |
| 20260505151606 | 53 | 314 | 0.9 | 2.6 | 0.00 | 0.00 | 0.00 | 90 | 1015.8 |
| 20260505150603 | 53 | 315 | 0.9 | 2.6 | 0.00 | 0.00 | 0.00 | 90 | 1015.8 |
| 20260505150106 | 53 | 305 | 0.9 | 2.6 | 0.00 | 0.00 | 0.00 | 90 | 1015.8 |
| 20260505140601 | 53 | 209 | 0.0 | 1.7 | 0.00 | 0.00 | 0.00 | 90 | 1015.4 |
| 20260505140331 | 53 | 209 | 0.0 | 1.7 | 0.00 | 0.00 | 0.00 | 90 | 1015.4 |
| 20260505124812 | 53 | 183 | 0.0 | 0.0 | 0.00 | 0.00 | 0.00 | 90 | 1014.8 |
| 20260505124048 | 53 | 183 | 0.0 | 0.0 | 0.00 | 0.00 | 0.00 | 90 | 1014.8 |
| 20260505123547 | 53 | 183 | 0.0 | 0.0 | 0.00 | 0.00 | 0.00 | 90 | 1014.7 |
| 20260505123050 | 53 | 183 | 0.0 | 1.7 | 0.00 | 0.00 | 0.00 | 90 | 1014.7 |
| 20260505122550 | 53 | 183 | 0.0 | 1.7 | 0.00 | 0.00 | 0.00 | 90 | 1014.7 |
| 20260505122048 | 53 | 183 | 0.0 | 0.0 | 0.00 | 0.00 | 0.00 | 90 | 1014.7 |
| 20260505121546 | 53 | 183 | 0.0 | 1.7 | 0.00 | 0.00 | 0.00 | 90 | 1014.7 |
| 20260505121043 | 53 | 183 | 0.0 | 1.7 | 0.00 | 0.00 | 0.00 | 90 | 1014.6 |
| 20260505120540 | 53 | 129 | 0.0 | 1.7 | 0.00 | 0.00 | 0.00 | 90 | 1014.6 |
| 20260505120038 | 53 | 129 | 0.0 | 1.7 | 0.00 | 0.00 | 0.00 | 90 | 1014.6 |
| 20260505115537 | 53 | 129 | 0.0 | 1.7 | 0.00 | 0.00 | 0.00 | 90 | 1014.5 |
| 20260505115035 | 53 | 129 | 0.0 | 1.7 | 0.00 | 0.00 | 0.00 | 90 | 1014.5 |
| 20260505114755 | 53 | 93 | 0.0 | 1.7 | 0.00 | 0.00 | 0.00 | 90 | 1014.5 |
| 20260505114029 | 53 | 93 | 0.0 | 1.7 | 0.00 | 0.00 | 0.00 | 90 | 1014.5 |
| 20260505113532 | 53 | 93 | 0.0 | 0.0 | 0.00 | 0.00 | 0.00 | 90 | 1014.5 |
| 20260505113032 | 53 | 93 | 0.0 | 0.0 | 0.00 | 0.00 | 0.00 | 89 | 1014.5 |
| 20260505112532 | 53 | 93 | 0.0 | 0.0 | 0.00 | 0.00 | 0.00 | 89 | 1014.6 |
| 20260505112029 | 53 | 93 | 0.0 | 0.0 | 0.00 | 0.00 | 0.00 | 89 | 1014.6 |
| 20260505111530 | 53 | 93 | 0.0 | 0.0 | 0.00 | 0.00 | 0.00 | 89 | 1014.6 |
| 20260505111031 | 53 | 93 | 0.0 | 0.0 | 0.00 | 0.00 | 0.00 | 89 | 1014.6 |
| 20260505110528 | 53 | 93 | 0.0 | 0.0 | 0.00 | 0.00 | 0.00 | 89 | 1014.7 |